Weather History for Provincetown, MA

Change the Weather History Date:

Thursday, November 1, 2012

  Actual Average Record
Temperature  
Mean Temperature 52 °F -  
Max Temperature 57 °F 53 °F 71 °F (1956)
Min Temperature 48 °F 42 °F 33 °F (2008)
Degree Days  
Heating Degree Days 12    
Growing Degree Days 2 (Base 50)    
Moisture  
Dew Point 43 °F    
Average Humidity 70    
Maximum Humidity 87    
Minimum Humidity 58    
Precipitation  
Precipitation 0.00 in - - ()
Sea Level Pressure  
Sea Level Pressure 29.56 in    
Wind  
Wind Speed 10 mph (SW)    
Max Wind Speed 21 mph    
Max Gust Speed 28 mph    
Visibility 10 miles    
Events      
Averages and records for this station are not official NWS values.
T = Trace of Precipitation, MM = Missing Value Source: NWS Daily Summary

Daily Weather History Graph

Daily Weather History Graph

Search for Another Location

Airport:

Trip Planner

Search our weather history database for the weather conditions in past years. The results will help you decide how hot, cold, wet, or windy it might be!

Date:

Astronomy

Nov. 01, 2012 Rise Set
Actual Time 7:14 AM EDT 5:34 PM EDT
Civil Twilight 6:45 AM EDT 6:03 PM EDT
Nautical Twilight 6:12 AM EDT 6:36 PM EDT
Astronomical Twilight 5:39 AM EDT 7:08 PM EDT
Moon 7:26 PM EDT (11/1) 9:46 AM EDT (11/1)
Length of Visible Light 11h 18m
Length of Day
10h 19m
Waning Gibbous, 93% of the Moon is Illuminated
Nov 1
Waning Gibbous
Nov 6
Last Quarter
Nov 13
New
Nov 20
First Quarter
Nov 28
Full

Hourly Weather History & Observations

Time (EDT) Temp. Dew Point Humidity Pressure Visibility Wind Dir Wind Speed Gust Speed Precip Events Conditions
12:15 AM 51.8 °F 44.6 °F 76% 29.59 in 10.0 mi WSW 11.5 mph - N/A   Clear
12:35 AM 51.8 °F 44.6 °F 76% 29.59 in 10.0 mi WSW 9.2 mph - N/A   Scattered Clouds
12:55 AM 51.8 °F 44.6 °F 76% 29.58 in 10.0 mi West 8.1 mph - N/A   Overcast
1:15 AM 51.8 °F 44.6 °F 76% 29.58 in 10.0 mi WSW 9.2 mph - N/A   Overcast
1:35 AM 51.8 °F 44.6 °F 76% 29.58 in 10.0 mi West 8.1 mph - N/A   Overcast
1:55 AM 51.8 °F 42.8 °F 71% 29.58 in 10.0 mi WSW 8.1 mph - N/A   Overcast
2:15 AM 51.8 °F 42.8 °F 71% 29.57 in 10.0 mi WSW 4.6 mph - N/A   Overcast
2:35 AM 51.8 °F 42.8 °F 71% 29.57 in 10.0 mi SW 3.5 mph - N/A   Overcast
2:55 AM 50.0 °F 44.6 °F 82% 29.56 in 10.0 mi Calm Calm - N/A   Overcast
3:15 AM 48.2 °F 44.6 °F 87% 29.56 in 10.0 mi Calm Calm - N/A   Overcast
3:35 AM 48.2 °F 44.6 °F 87% 29.56 in 10.0 mi SSE 4.6 mph - N/A   Overcast
3:55 AM 50.0 °F 44.6 °F 82% 29.56 in 10.0 mi SSE 4.6 mph - N/A   Overcast
4:15 AM 50.0 °F 44.6 °F 82% 29.56 in 10.0 mi SE 4.6 mph - N/A   Overcast
4:35 AM 50.0 °F 44.6 °F 82% 29.55 in 10.0 mi SSE 3.5 mph - N/A   Overcast
5:15 AM 51.8 °F 44.6 °F 76% 29.56 in 10.0 mi South 4.6 mph - N/A   Overcast
5:35 AM 51.8 °F 44.6 °F 76% 29.56 in 10.0 mi SW 6.9 mph - N/A   Overcast
5:55 AM 51.8 °F 44.6 °F 76% 29.56 in 10.0 mi WSW 11.5 mph - N/A   Overcast
6:15 AM 51.8 °F 41.0 °F 67% 29.57 in 10.0 mi SW 12.7 mph - N/A   Overcast
6:35 AM 51.8 °F 41.0 °F 67% 29.57 in 10.0 mi SW 10.4 mph 17.3 mph N/A   Overcast
7:15 AM 50.0 °F 41.0 °F 71% 29.58 in 10.0 mi WSW 10.4 mph - N/A   Partly Cloudy
7:55 AM 50.0 °F 42.8 °F 76% 29.58 in 10.0 mi West 10.4 mph - N/A   Clear
8:15 AM 50.0 °F 42.8 °F 76% 29.59 in 10.0 mi West 10.4 mph - N/A   Clear
8:35 AM 50.0 °F 41.0 °F 71% 29.59 in 10.0 mi WSW 11.5 mph - N/A   Clear
8:55 AM 51.8 °F 41.0 °F 67% 29.59 in 10.0 mi WSW 11.5 mph - N/A   Clear
9:55 AM 51.8 °F 42.8 °F 71% 29.59 in 10.0 mi WSW 11.5 mph - N/A   Clear
10:15 AM 53.6 °F 41.0 °F 62% 29.59 in 10.0 mi West 11.5 mph - N/A   Clear
10:35 AM 51.8 °F 41.0 °F 67% 29.59 in 10.0 mi West 10.4 mph - N/A   Clear
11:15 AM 53.6 °F 41.0 °F 62% 29.59 in 10.0 mi WSW 10.4 mph - N/A   Clear
11:35 AM 55.4 °F 42.8 °F 63% 29.58 in 10.0 mi SW 11.5 mph - N/A   Partly Cloudy
11:55 AM 55.4 °F 41.0 °F 58% 29.57 in 10.0 mi SW 15.0 mph - N/A   Clear
12:15 PM 55.4 °F 42.8 °F 63% 29.56 in 10.0 mi SW 13.8 mph - N/A   Partly Cloudy
12:55 PM 57.2 °F 42.8 °F 59% 29.54 in 9.0 mi SW 16.1 mph - N/A   Clear
1:15 PM 57.2 °F 44.6 °F 63% 29.54 in 10.0 mi SW 17.3 mph 21.9 mph N/A   Scattered Clouds
1:35 PM 57.2 °F 44.6 °F 63% 29.53 in 10.0 mi SW 19.6 mph 24.2 mph N/A   Scattered Clouds
1:55 PM 57.2 °F 42.8 °F 59% 29.53 in 10.0 mi SW 20.7 mph - N/A   Scattered Clouds
2:15 PM 57.2 °F 42.8 °F 59% 29.53 in 10.0 mi SSW 17.3 mph 24.2 mph N/A   Clear
2:35 PM 57.2 °F 42.8 °F 59% 29.53 in 10.0 mi SSW 17.3 mph 24.2 mph N/A   Partly Cloudy
2:55 PM 55.4 °F 42.8 °F 63% 29.53 in 10.0 mi SW 20.7 mph 26.5 mph N/A   Partly Cloudy
3:15 PM 55.4 °F 42.8 °F 63% 29.53 in 10.0 mi SW 20.7 mph 27.6 mph N/A   Clear
3:35 PM 55.4 °F 42.8 °F 63% 29.53 in 10.0 mi SW 17.3 mph - N/A   Partly Cloudy
3:55 PM 55.4 °F 42.8 °F 63% 29.53 in 9.0 mi SW 18.4 mph 23.0 mph N/A   Partly Cloudy
4:15 PM 55.4 °F 42.8 °F 63% 29.53 in 10.0 mi SW 18.4 mph 24.2 mph N/A   Partly Cloudy
4:35 PM 55.4 °F 42.8 °F 63% 29.53 in 10.0 mi WSW 17.3 mph 21.9 mph N/A   Mostly Cloudy
4:55 PM 53.6 °F 42.8 °F 67% 29.53 in 10.0 mi SW 15.0 mph - N/A   Scattered Clouds
5:15 PM 51.8 °F 42.8 °F 71% 29.53 in 10.0 mi WSW 16.1 mph - N/A   Clear
5:35 PM 51.8 °F 42.8 °F 71% 29.53 in 10.0 mi SW 12.7 mph - N/A   Clear
5:55 PM 51.8 °F 42.8 °F 71% 29.53 in 10.0 mi SW 13.8 mph - N/A   Clear
6:15 PM 51.8 °F 42.8 °F 71% 29.54 in 10.0 mi SW 13.8 mph - N/A   Clear
6:35 PM 51.8 °F 42.8 °F 71% 29.55 in 10.0 mi WSW 10.4 mph - N/A   Clear
6:55 PM 51.8 °F 42.8 °F 71% 29.55 in 10.0 mi SW 13.8 mph - N/A   Clear
7:15 PM 51.8 °F 42.8 °F 71% 29.55 in 10.0 mi SW 12.7 mph - N/A   Clear
7:35 PM 51.8 °F 42.8 °F 71% 29.55 in 10.0 mi SW 15.0 mph - N/A   Clear
7:55 PM 51.8 °F 44.6 °F 76% 29.55 in 10.0 mi SW 12.7 mph - N/A   Clear
8:15 PM 51.8 °F 42.8 °F 71% 29.55 in 10.0 mi WSW 13.8 mph - N/A   Scattered Clouds
8:35 PM 51.8 °F 42.8 °F 71% 29.55 in 10.0 mi WSW 13.8 mph - N/A   Mostly Cloudy
8:55 PM 51.8 °F 44.6 °F 76% 29.56 in 10.0 mi WSW 12.7 mph - N/A   Mostly Cloudy
9:15 PM 51.8 °F 42.8 °F 71% 29.56 in 10.0 mi WSW 11.5 mph - N/A   Overcast
9:35 PM 51.8 °F 42.8 °F 71% 29.56 in 10.0 mi WSW 11.5 mph - N/A   Mostly Cloudy
9:55 PM 51.8 °F 42.8 °F 71% 29.56 in 10.0 mi West 9.2 mph - N/A   Partly Cloudy
10:15 PM 51.8 °F 41.0 °F 67% 29.56 in 10.0 mi West 11.5 mph - N/A   Scattered Clouds
10:35 PM 51.8 °F 41.0 °F 67% 29.56 in 10.0 mi West 11.5 mph - N/A   Mostly Cloudy
10:55 PM 51.8 °F 41.0 °F 67% 29.55 in 10.0 mi West 13.8 mph - N/A   Partly Cloudy
11:15 PM 51.8 °F 42.8 °F 71% 29.56 in 10.0 mi West 10.4 mph - N/A   Clear
11:35 PM 51.8 °F 42.8 °F 71% 29.55 in 10.0 mi West 10.4 mph - N/A   Clear
11:55 PM 51.8 °F 42.8 °F 71% 29.56 in 10.0 mi West 12.7 mph - N/A   Mostly Cloudy